Regional Weather Roundup
Issued by NWS

Home | Current Version | Previous Version | Text Only | Print | Product List | Glossary On
Versions: 1 2 3 4 5 6 7 8 9 10 11 12 13 14 15 16 17 18 19 20 21 22 23 24 25 26 27 28 29 30 31 32 33 34 35 36 37 38 39 40 41 42 43 44 45 46 47 48 49 50
000
ASUS44 KLUB 051801
RWRTX
WEST TEXAS WEATHER ROUNDUP
NATIONAL WEATHER SERVICE LUBBOCK TX
100 PM CDT SUN JUL 05 2015

NOTE: "FAIR" INDICATES FEW OR NO CLOUDS BELOW 12,000 FEET WITH NO
SIGNIFICANT WEATHER AND/OR OBSTRUCTIONS TO VISIBILITY.

TXZ004-006>008-010-012-014-016-OKZ002-051900-
TEXAS PANHANDLE/OKLAHOMA PANHANDLE

CITY           SKY/WX    TMP DP  RH WIND       PRES   REMARKS
AMARILLO       SUNNY     87  62  43 S14G23    30.04F
BORGER         SUNNY     88  63  43 S13G24    30.00F
CANADIAN       SUNNY     91  66  44 S16G22    29.96F
DALHART        SUNNY     92  58  31 SW21G30   30.03F
DUMAS          SUNNY     87  63  44 S17G25    30.02S
GUYMON         SUNNY     92  60  34 S23G30    29.93F
$$

TXZ026-029-035-045-048-051900-
SOUTHERN PANHANDLE/SOUTH PLAINS/ROLLING PLAINS

CITY           SKY/WX    TMP DP  RH WIND       PRES   REMARKS
CHILDRESS      MOSUNNY   90  68  48 S17       29.97F
LUBBOCK        PTSUNNY   86  65  49 S15G21    30.04F
$$

TXZ052-054-060>062-072-078-127-140-154-169-051900-
PERMIAN BASIN/CONCHO VALLEY/BIG COUNTRY/EDWARDS PLATEAU

CITY           SKY/WX    TMP DP  RH WIND       PRES   REMARKS
ABILENE        PTSUNNY   89  68  49 S17       30.02F
JUNCTION       MOSUNNY   86  64  47 S16       30.05F
MIDLAND        MOSUNNY   88  67  49 S15       30.01F
ODESSA         SUNNY     87  65  47 SW9       30.02F
SAN ANGELO     MOSUNNY   89  68  49 S16G24    30.02S
SWEETWATER     MOSUNNY   85  68  56 SE12G22   30.06S
WINK           MOSUNNY   92  64  39 S10       29.98F
$$

TXZ055-058-074-075-080-082-051900-
FAR WEST/SOUTHWEST MOUNTAINS/TRANS PECOS

CITY           SKY/WX    TMP DP  RH WIND       PRES   REMARKS
ALPINE         MOSUNNY   86  59  39 SW12G20   30.16F
DRYDEN           N/A     88  69  53 MISG      30.00F
EL PASO        PTSUNNY   86  61  42 SW10      30.07F
FORT STOCKTON  LGT RAIN  87  67  51 SE17G24   30.01S
GUADALUPE PASS SUNNY     86  61  42 W17       30.18S
MARFA          PTSUNNY  N/A N/A N/A W18G28    30.17S
$$

TXZ014-016-019-021>030-083-051900
TEXAS TECH WEST TEXAS MESONET/TEXAS PANHANDLE/NORTHERN SOUTH PLAINS

CITY           SKY/WX    TMP DP  RH WIND       PRES   REMARKS
ABERNATHY 5ENE   N/A     84  64  50 S12       30.06F
AMARILLO 9NNE    N/A     87  63  44 S13       30.02S
AMARILLO 7SSE    N/A     87  63  44 S16       30.05F
AMHERST 1NE      N/A     84  59  42 S8        30.06S
BOOTLEG 11WNW    N/A     85  61  44 S13       30.09S
CANADIAN 6E      N/A     90  65  43 S18       29.96S
CAPROCK CYN SP   N/A     88  65  47 S12       30.02S
CHILDRESS 2NNE   N/A     89  67  48 S14G23    29.98F
CLARENDON 2WSW   N/A     87  63  44 S14       30.01F
CLAUDE 12SW      N/A     86  66  52 SE15      30.04F
DIMMITT 2NE      N/A     84  64  50 S13       30.07S
FLOYDADA 2NNE    N/A     86  63  46 S14       30.05S
FRIONA 2NE       N/A     85  62  45 S16       30.07S
GOODLETT 3W      N/A     90  67  45 S15       29.96F
HART 3N          N/A     83  64  52 S8        30.06F
HEREFORD 2NW     N/A     84  60  45 S14       30.06S
MCLEAN 1E        N/A     88  64  43 S14       30.00F
MEMPHIS 1NE      N/A     90  67  46 S12       29.98S
MULESHOE 2SSW    N/A     85  60  43 S10       30.06S
OLTON 6S         N/A     84  60  45 S13       30.05F
PALO DURO SP     N/A     88  64  45 S13       30.05F
PAMPA 2E         N/A     85  64  48 S16       30.02F
PLAINVIEW 1S     N/A     85  65  51 S9        30.05S
SILVERTON 7ESE   N/A     86  65  48 S14       30.04F
TULIA 2ENE       N/A     84  64  50 S13       30.05F
TURKEY 2WSW      N/A     88  65  46 S12       30.00S
UMBARGER 3NNE    N/A     86  61  42 S15       30.06S
$$

TXZ033>036-039>041-045>048-051900
TEXAS TECH WEST TEXAS MESONET/SOUTH PLAINS

CITY           SKY/WX    TMP DP  RH WIND       PRES   REMARKS
AIKEN 3WSW       N/A     85  65  51 S13       30.06F
ANDREWS 2NE      N/A     87  63  43 S9        30.03S
ANTON 6SSW       N/A     85  63  46 S13       30.05S
BROWNFIELD 2S    N/A     85  63  48 S9        30.04F
DENVR CTY 7WNW   N/A     86  57  37 S6G17     30.05S
GAIL 2ESE        N/A     86  68  54 S10       30.02S
LAMESA 2SE       N/A     87  67  52 S7        30.04S
LEVELLAND 4S     N/A     85  62  46 S9        30.05F
LUBBOCK 3WNW     N/A     86  64  48 S6        30.05S
MORTON 1ENE      N/A     86  59  39 SE10      30.06S
ODONNELL 1N      N/A     85  64  48 SE10      30.04F
PLAINS 3N        N/A     85  61  43 S10       30.06S
RALLS 1SE        N/A     85  67  55 S13       30.06S
REESE CENTER     N/A     83  63  50 S12       30.05S
SEAGRAVES 1SW    N/A     85  63  47 S9        30.04S
SEMINOLE 2NNE    N/A     86  63  46 S7        30.03F
SLATON 2NE       N/A     85  64  48 S12       30.05S
SNYDER 3E        N/A     86  68  54 S13       30.03S
SUNDOWN 8SW      N/A     84  63  49 SE8       30.06S
TAHOKA 3NNE      N/A     85  65  51 SE7       30.04F
WOLFFORTH 6SSW   N/A     86  64  47 S8        30.05S
$$

TXZ031-032-036>038-042>044-051900-
TEXAS TECH WEST TEXAS MESONET/ROLLING PLAINS

CITY           SKY/WX    TMP DP  RH WIND       PRES   REMARKS
ASPERMONT 3NE    N/A     89  69  51 S8        30.00S
FLUVANNA 3WNW    N/A     83  66  56 S10       30.04S
GRAHAM 5SSW      N/A     85  66  53 S13       30.04S
GUTHRIE 10WSW    N/A     87  67  51 S13       29.99S
HASKELL 1NW      N/A     89  64  43 S10       29.99F
JAYTON 1SSE      N/A     88  67  49 S13       30.00F
KNOX CITY 3NW    N/A     92  65  40 S15       29.98F
LK A HENRY 1NW   N/A     88  67  50 S10       30.02S
NORTHFIELD 1S    N/A     90  68  48 S14       29.98F
ODELL 4ENE       N/A     90  72  55 S12       29.97F HX  96
PADUCAH 10SW     N/A     88  67  51 S10G20    29.99S
POST 1NE         N/A     85  66  53 S9        30.03S
RRING SPRGS 3N   N/A     85  68  56 S13       30.02F
SEYMOUR 3NW      N/A     89  68  49 SE10      29.97F
SPUR 1W          N/A     85  66  51 SW13      30.01S
WEINERT 2NNE     N/A     90  69  50 SW8       29.99F
WHITE RVR 6NE    N/A     86  67  52 S13       30.03S
$$

TXZ052-054-060>062-072-078-127-140-154-169-051900-
TEXAS TECH WEST TEXAS MESONET/PERMIAN BASIN/
CONCHO VALLEY/BIG COUNTRY/EDWARDS PLATEAU

CITY           SKY/WX    TMP DP  RH WIND       PRES   REMARKS
COYANOSA 2N      N/A     92  65  41 S1        29.98F
JUNCTION 1SSW    N/A     86  66  51 S13       30.05S
MERTZON 3NNE     N/A     85  70  61 S15       30.04S
SAN ANGELO 7NW   N/A     85  67  53 S13       30.03S
STRLNG CT 4WSW   N/A     87  68  52 SE14      30.03S
ST LAWRNCE 5SW   N/A     87  65  48 S18       30.02S
SWEETWATR 11SW   N/A     85  69  57 S17       30.06S
WALL 1E          N/A     88  66  47 S14       30.03S
$$

TXZ055-058-074-075-080-082-051900-
TEXAS TECH WEST TEXAS MESONET/FAR WEST/SOUTHWEST MOUNTAINS/TRANS PECOS

CITY           SKY/WX    TMP DP  RH WIND       PRES   REMARKS
PRSMN GAP BBNP   N/A     91  64  40 SE5       30.02F
$$


USA.gov is the U.S. government's official web portal to all federal, state and local government web resources and services.